星链-35157(STARLINK-35157)

导读

STARLINK-35157是美国SpaceX星链星座的成员卫星,星链项目旨在构建全球卫星互联网,为偏远区域及地面网络覆盖不足地区提供低成本高速互联网接入服务。该卫星于2025年9月26日由美国发射入轨,延续星链低轨部署模式,承担通信组网任务,进一步扩充了星链星座的全球服务覆盖能力与通信容量,支撑星链项目的商业运营与拓展。

Basic Information
目录编号:
65814
目录名称:
STARLINK-35157
国际标识:
2025-218Z
轨道中心:
EARTH
卫星名称:
星链-35157
卫星全名:
星链-35157(STARLINK-35157)
卫星状态:
在轨 (已飞行260 天)
发射日期:
2025-09-26 UTC
国别 :
美国 (US)
星等 :
--
Orbit Information
数据来源 国际轨道数据 AOE轨道数据
星历时间 2026-06-13T12:21:14+0800
11小时前
查看轨道信息
2026-06-13T00:00:00+0800
23小时前
查看轨道信息
半长轴 6927.633km 6927.673km
偏心率 0.0002117 0.0002054
轨道倾角 97.368° 97.369°
近地点辐角 94.991° 89.614°
升交点赤经 26.294° 25.800°
平近点角 265.156° 2.181°
近地点 548.029km 548.113km
远地点 550.963km 550.959km
周期 95.639分钟 95.640分钟
每日圈数 15.056552 15.056421
Detailed Information
固有亮度:
5
最大亮度:
2.5
卫星平台:
Starlink V1.0
覆盖范围:
全球
运营商:
太空探索技术公司
运营商所在国:
美国
制造商(研发单位):
太空探索技术公司
制造商所在国:
美国
使用方式:
暂无
Satellite Introduction
Starlink 计划是 SpaceX 推出的全球卫星互联网项目,通过发射低轨道卫星,为全球尤其是偏远地区提供高速、低延迟的互联网服务。自 2019 年起,Starlink 已部署数千颗卫星,旨在缩小全球数字鸿沟,推动互联网普及。该项目还为军事、航空等行业提供通信支持,带来广泛经济效益。
2D Orbit Map
3D Orbit Map
Orbit Altitude Analysis Chart
Orbit Inclination Analysis Chart
Orbit Comprehensive Analysis Chart
View Comprehensive Chart